• In Belgium
  • List of Countries
  • For 7 days
  • Water Temperature
  • Satellite Maps
  • Weather Map
  • Weather Widgets
  • user-avatar
    Login

    Hourly Weather Antwerp

    Today, 12 December, Tuesday

    Time Temperature Precipitation Wind Pressure Humidity
    00:00 +1°C° 0 mm 6 mps 743 mmHg 82%
    01:00 +1°C° 0.1 mm 5 mps 744 mmHg 82%
    02:00 0°C° 0.1 mm 5 mps 745 mmHg 82%
    03:00 0°C° 0.1 mm 4 mps 747 mmHg 81%
    04:00 0°C° 0.1 mm 4 mps 748 mmHg 83%
    05:00 0°C° 0.1 mm 4 mps 749 mmHg 84%
    06:00 0°C° 0.1 mm 4 mps 750 mmHg 85%
    07:00 0°C° 0.3 mm 4 mps 751 mmHg 86%
    08:00 0°C° 0.3 mm 4 mps 752 mmHg 86%
    09:00 +1°C° 0.3 mm 4 mps 753 mmHg 86%
    10:00 +1°C° 0.5 mm 4 mps 754 mmHg 83%
    11:00 +3°C° 0.5 mm 4 mps 755 mmHg 81%
    12:00 +4°C° 0.5 mm 4 mps 756 mmHg 78%
    13:00 +3°C° 0.4 mm 4 mps 756 mmHg 79%
    14:00 +3°C° 0.4 mm 4 mps 757 mmHg 79%
    15:00 +3°C° 0.4 mm 4 mps 757 mmHg 80%
    16:00 +1°C° 0.1 mm 4 mps 758 mmHg 83%
    17:00 +1°C° 0.1 mm 4 mps 758 mmHg 86%
    18:00 0°C° 0.1 mm 4 mps 758 mmHg 89%
    19:00 0°C° 0 mm 4 mps 759 mmHg 88%
    20:00 0°C° 0 mm 4 mps 759 mmHg 88%
    21:00 0°C° 0 mm 5 mps 759 mmHg 88%
    22:00 0°C° 0 mm 5 mps 759 mmHg 87%
    23:00 -1°C° 0 mm 6 mps 759 mmHg 86%

    Tomorrow, 13 December, Wednesday

    Time Temperature Precipitation Wind Pressure Humidity
    00:00 -1°C° 0 mm 6 mps 759 mmHg 85%
    01:00 -1°C° 0 mm 7 mps 758 mmHg 86%
    02:00 0°C° 0 mm 7 mps 757 mmHg 86%
    03:00 0°C° 0 mm 8 mps 756 mmHg 87%
    04:00 0°C° 0.6 mm 9 mps 756 mmHg 86%
    05:00 +1°C° 0.6 mm 9 mps 755 mmHg 85%
    06:00 +1°C° 0.6 mm 10 mps 754 mmHg 84%
    07:00 +2°C° 0.4 mm 10 mps 753 mmHg 84%
    08:00 +2°C° 0.4 mm 10 mps 753 mmHg 85%
    09:00 +3°C° 0.4 mm 10 mps 752 mmHg 85%
    10:00 +3°C° 0.1 mm 9 mps 752 mmHg 85%
    11:00 +5°C° 0.1 mm 8 mps 752 mmHg 86%
    12:00 +5°C° 0.1 mm 7 mps 751 mmHg 86%
    13:00 +5°C° 0.7 mm 7 mps 750 mmHg 87%
    14:00 +5°C° 0.7 mm 7 mps 749 mmHg 88%
    15:00 +5°C° 0.7 mm 7 mps 749 mmHg 90%
    16:00 +5°C° 1.3 mm 8 mps 747 mmHg 89%
    17:00 +6°C° 1.3 mm 9 mps 746 mmHg 88%
    18:00 +6°C° 1.3 mm 10 mps 745 mmHg 86%
    19:00 +6°C° 1.3 mm 9 mps 745 mmHg 81%
    20:00 +5°C° 1.3 mm 8 mps 745 mmHg 76%
    21:00 +5°C° 1.3 mm 8 mps 746 mmHg 70%
    22:00 +4°C° 0.1 mm 8 mps 745 mmHg 72%
    23:00 +4°C° 0.1 mm 8 mps 745 mmHg 73%

    Day after tomorrow, 14 December, Thursday

    Time Temperature Precipitation Wind Pressure Humidity
    00:00 +2°C° 0.1 mm 8 mps 745 mmHg 74%
    01:00 +2°C° 0.7 mm 9 mps 745 mmHg 69%
    02:00 +2°C° 0.7 mm 10 mps 745 mmHg 64%
    03:00 +2°C° 0.7 mm 10 mps 745 mmHg 59%
    04:00 +1°C° 0 mm 10 mps 746 mmHg 61%
    05:00 +1°C° 0 mm 9 mps 747 mmHg 62%
    06:00 +1°C° 0 mm 8 mps 747 mmHg 63%
    07:00 +1°C° 0 mm 8 mps 747 mmHg 65%
    08:00 +2°C° 0 mm 7 mps 747 mmHg 67%
    09:00 +2°C° 0 mm 7 mps 747 mmHg 69%
    10:00 +3°C° 0.3 mm 7 mps 746 mmHg 71%
    11:00 +3°C° 0.3 mm 7 mps 746 mmHg 74%
    12:00 +3°C° 0.3 mm 7 mps 745 mmHg 77%
    13:00 +3°C° 0.4 mm 6 mps 744 mmHg 79%
    14:00 +3°C° 0.4 mm 5 mps 743 mmHg 82%
    15:00 +4°C° 0.4 mm 4 mps 742 mmHg 85%
    16:00 +3°C° 0.4 mm 4 mps 742 mmHg 82%
    17:00 +2°C° 0.4 mm 5 mps 743 mmHg 78%
    18:00 +2°C° 0.4 mm 5 mps 743 mmHg 75%
    19:00 +2°C° 0 mm 5 mps 743 mmHg 75%
    20:00 +1°C° 0 mm 5 mps 743 mmHg 75%
    21:00 +1°C° 0 mm 5 mps 743 mmHg 75%
    22:00 +1°C° 0.4 mm 5 mps 743 mmHg 78%
    23:00 +1°C° 0.4 mm 5 mps 743 mmHg 80%

    15 December, Friday

    Time Temperature Precipitation Wind Pressure Humidity
    00:00 +1°C° 0.4 mm 5 mps 743 mmHg 83%
    01:00 +2°C° 0.1 mm 6 mps 743 mmHg 83%
    02:00 +2°C° 0.1 mm 6 mps 742 mmHg 84%
    03:00 +2°C° 0.1 mm 6 mps 742 mmHg 84%
    04:00 +2°C° 0.2 mm 6 mps 742 mmHg 85%
    05:00 +2°C° 0.2 mm 6 mps 742 mmHg 87%
    06:00 +2°C° 0.2 mm 5 mps 742 mmHg 88%
    07:00 +2°C° 0.2 mm 5 mps 743 mmHg 86%
    08:00 +2°C° 0.2 mm 5 mps 743 mmHg 85%
    09:00 +3°C° 0.2 mm 5 mps 744 mmHg 83%
    10:00 +3°C° 0.1 mm 5 mps 744 mmHg 80%
    11:00 +3°C° 0.1 mm 5 mps 745 mmHg 77%
    12:00 +5°C° 0.1 mm 5 mps 746 mmHg 74%
    13:00 +5°C° 0.6 mm 5 mps 746 mmHg 74%
    14:00 +3°C° 0.6 mm 5 mps 747 mmHg 75%
    15:00 +4°C° 0.6 mm 4 mps 748 mmHg 76%
    16:00 +4°C° 0.1 mm 4 mps 748 mmHg 77%
    17:00 +3°C° 0.1 mm 4 mps 749 mmHg 78%
    18:00 +3°C° 0.1 mm 4 mps 750 mmHg 79%
    19:00 +3°C° 0 mm 4 mps 751 mmHg 80%
    20:00 +3°C° 0 mm 4 mps 752 mmHg 81%
    21:00 +3°C° 0 mm 4 mps 753 mmHg 83%
    22:00 +3°C° 0.1 mm 4 mps 753 mmHg 84%
    23:00 +3°C° 0.1 mm 4 mps 754 mmHg 86%

    16 December, Saturday

    Time Temperature Precipitation Wind Pressure Humidity
    00:00 +3°C° 0.1 mm 4 mps 754 mmHg 87%
    01:00 +3°C° 0.2 mm 4 mps 755 mmHg 87%
    02:00 +3°C° 0.2 mm 4 mps 755 mmHg 87%
    03:00 +3°C° 0.2 mm 4 mps 755 mmHg 88%
    04:00 +3°C° 0.5 mm 4 mps 756 mmHg 87%
    05:00 +3°C° 0.5 mm 4 mps 756 mmHg 87%
    06:00 +3°C° 0.5 mm 4 mps 756 mmHg 86%
    07:00 +3°C° 0.1 mm 4 mps 757 mmHg 85%
    08:00 +3°C° 0.1 mm 4 mps 757 mmHg 84%
    09:00 +3°C° 0.1 mm 4 mps 758 mmHg 83%
    10:00 +2°C° 0.1 mm 5 mps 758 mmHg 79%
    11:00 +3°C° 0.1 mm 5 mps 758 mmHg 74%
    12:00 +3°C° 0.1 mm 5 mps 758 mmHg 69%
    13:00 +3°C° 0.1 mm 5 mps 758 mmHg 71%
    14:00 +2°C° 0.1 mm 5 mps 759 mmHg 73%
    15:00 +2°C° 0.1 mm 5 mps 759 mmHg 75%
    16:00 +2°C° 0.2 mm 5 mps 760 mmHg 76%
    17:00 +1°C° 0.2 mm 4 mps 760 mmHg 78%
    18:00 +1°C° 0.2 mm 4 mps 761 mmHg 80%
    19:00 +1°C° 0.2 mm 4 mps 761 mmHg 81%
    20:00 +1°C° 0.2 mm 4 mps 762 mmHg 81%
    21:00 +1°C° 0.2 mm 4 mps 762 mmHg 82%
    22:00 +1°C° 0.2 mm 4 mps 763 mmHg 82%
    23:00 +1°C° 0.2 mm 4 mps 763 mmHg 82%

    17 December, Sunday

    Time Temperature Precipitation Wind Pressure Humidity
    00:00 +1°C° 0.2 mm 4 mps 763 mmHg 82%
    01:00 +1°C° 0.2 mm 4 mps 764 mmHg 83%
    02:00 +1°C° 0.2 mm 4 mps 764 mmHg 83%
    03:00 0°C° 0.2 mm 4 mps 764 mmHg 83%
    04:00 0°C° 0.1 mm 4 mps 764 mmHg 84%
    05:00 0°C° 0.1 mm 4 mps 765 mmHg 85%
    06:00 0°C° 0.1 mm 4 mps 765 mmHg 85%
    07:00 0°C° 0.1 mm 4 mps 765 mmHg 85%
    08:00 +1°C° 0.1 mm 4 mps 766 mmHg 86%
    09:00 +1°C° 0.1 mm 4 mps 766 mmHg 86%
    10:00 +3°C° 0.1 mm 4 mps 766 mmHg 83%
    11:00 +3°C° 0.1 mm 4 mps 766 mmHg 80%
    12:00 +3°C° 0.1 mm 5 mps 766 mmHg 77%
    13:00 +4°C° 0 mm 4 mps 766 mmHg 79%
    14:00 +3°C° 0 mm 4 mps 766 mmHg 81%
    15:00 +3°C° 0 mm 4 mps 766 mmHg 83%
    16:00 +3°C° 0 mm 4 mps 766 mmHg 84%
    17:00 +1°C° 0 mm 4 mps 767 mmHg 86%
    18:00 +1°C° 0 mm 4 mps 767 mmHg 87%
    19:00 +1°C° 0 mm 4 mps 767 mmHg 88%
    20:00 0°C° 0 mm 4 mps 767 mmHg 89%
    21:00 0°C° 0 mm 4 mps 767 mmHg 90%
    22:00 0°C° 0 mm 4 mps 767 mmHg 90%
    23:00 0°C° 0 mm 4 mps 767 mmHg 89%
    Show more